Current weather by "City, St" or "zip code"  
 
Advertise Here

Current Conditions: Albion Municipal Airport, NE

Overcast and Breezy


31.0 F

Last Updated on Feb 28 2021, 6:55 am CST
Humidity: 87%
Wind Speed: NW 21.9 G 26.5 mph
Barometer 29.91 in
Dewpoint: 27.3 F
Visibility: 10.00 mi
Precip: --
Heat Index: NA
Wind Chill: 18 F
Current conditions at:

Albion Municipal Airport, NE (KBVN)

Lat: 41.73016 Lon: 98.05453

Local Radar Image active severe weather and emergency alerts image image weather storm and storm spotter reports image weather observation monitoring service image
Local
Radar
Active
Alerts
Storm Reports Obs
Monitoring

Sign-up For Email & Text Message Weather Alert Notification Services


Advertise Here

Observation History for Albion Municipal Airport, NE


Time Wind
(mph)
Vis
(mi)
Weather Precip (in) Temperature (F) Relative
Humidity
Wind
Chill
(F)
Heat
Index
(F)
Pressure
Air Dwpt altimeter
(in)
sea level
(mb)
Rmks
6:55 am CST NW 21.9 G 26.5 10.00 Overcast and Breezy -- 31.0 27.3 87% 18 NA 29.91 M
5:55 am CST NW 18.4 G 23.0 10.00 Overcast -- 34.0 31.6 92% 23 NA 29.87 M
4:55 am CST NW 13.8 10.00 Overcast -- 34.0 32.0 92% 25 NA 29.83 M
3:55 am CST NW 15.0 G 19.6 10.00 Overcast -- 34.0 32.5 94% 24 NA 29.81 M
2:55 am CST NW 11.5 G 18.4 10.00 Overcast -- 34.0 32.0 91% 26 NA 29.82 M
1:55 am CST NW 12.7 10.00 Overcast -- 35.0 32.0 90% 26 NA 29.81 M
1:35 am CST NW 15.0 G 23.0 10.00 Overcast -- 34.0 32.0 92% 24 NA 29.81 M
12:55 am CST NW 12.7 10.00 Overcast -- 34.0 32.0 94% 25 NA 29.79 M
12:35 am CST NW 8.1 10.00 Mostly Cloudy -- 32.0 30.2 94% 25 NA 29.78 M
11:55 pm CST NW 6.9 10.00 Fair -- 31.0 28.9 92% 24 NA 29.78 M
11:35 pm CST NW 9.2 10.00 Fair -- 32.0 29.7 91% 24 NA 29.78 M
10:55 pm CST NW 13.8 10.00 Fair -- 34.0 31.1 90% 25 NA 29.77 M
9:55 pm CST NW 8.1 10.00 Partly Cloudy -- 37.0 32.7 84% 31 NA 29.74 M
8:55 pm CST NW 5.8 10.00 Overcast -- 41.0 37.6 88% 37 NA 29.73 M
8:35 pm CST NW 4.6 10.00 Overcast -- 41.0 37.9 89% 38 NA 29.72 M
7:55 pm CST N 3.5 10.00 Overcast -- 41.0 38.3 89% NA NA 29.72 M
7:35 pm CST N 3.5 10.00 Overcast -- 41.0 38.1 90% NA NA 29.71 M
6:55 pm CST N 0.0 10.00 Overcast -- 42.0 38.7 88% NA NA 29.70 M
5:55 pm CST E 9.2 10.00 Overcast -- 44.0 39.2 82% 39 NA 29.67 M
4:55 pm CST SE 3.5 10.00 Overcast -- 46.0 38.5 76% NA NA 29.67 M
3:55 pm CST SE 11.5 10.00 Overcast -- 46.0 36.7 70% 41 NA 29.66 M
2:55 pm CST E 15.0 G 21.9 10.00 Overcast -- 47.0 32.5 57% 41 NA 29.67 M
2:35 pm CST E 19.6 G 25.3 10.00 Overcast -- 49.0 31.5 51% 42 NA 29.67 M
1:55 pm CST E 16.1 G 21.9 10.00 Overcast -- 47.0 30.4 52% 41 NA 29.68 M

Regional Weather Observation


Ord, Evelyn Sharp Field Airport, NE (KODX)

Light Freezing Rain Fog/Mist and Breezy
32.0 F

Norfolk, Stefan Memorial Airport, NE (KOFK)

Overcast and Windy
28.0 F

ONeill / Baker Field, NE (KONL)

Light Snow and Breezy
25.0 F

Columbus, Columbus Municipal Airport, NE (KOLU)

Overcast and Breezy
34.0 F

Yankton, Chan Gurney Municipal Airport, SD (KYKN)

Light Snow Fog/Mist and Breezy
23.0 F

Broken Bow, Broken Bow Municipal Airport, NE (KBBW)

Overcast and Breezy
30.0 F
Advertise Here

Advertise Here